KD0QNG Weather Reports


Display with metric or nautical units.
time (UTC)temp
F
wind
direction
speed
MPH
gust
MPH
rain 1hr
in
rain 24hr
in
rain mn
in
humidity
%
barometer
mb
20260507153252 59 255 6.0 8.0 0.00 0.00 0.00 63 1018.9
20260507152254 59 281 5.0 6.0 0.00 0.00 0.00 65 1019.0
20260507151244 58 254 8.0 9.0 0.00 0.00 0.00 66 1019.5
20260507150246 57 207 3.0 5.0 0.00 0.00 0.00 68 1019.6
20260507145239 57 201 3.0 3.0 0.00 0.00 0.00 68 1019.7
20260507144237 56 201 7.0 9.0 0.00 0.00 0.00 69 1019.7
20260507143342 55 297 7.0 10.0 0.00 0.00 0.00 71 1019.6
20260507142324 54 240 8.0 11.0 0.00 0.00 0.00 73 1019.5
20260507141319 54 243 5.0 7.0 0.00 0.00 0.00 75 1019.7
20260507140316 53 254 6.0 7.0 0.00 0.00 0.00 76 1019.7
20260507135317 52 237 4.0 5.0 0.00 0.00 0.00 79 1020.1
20260507134309 51 257 5.0 7.0 0.00 0.00 0.00 81 1020.3
20260507133305 50 237 4.0 5.0 0.00 0.00 0.00 83 1019.9
20260507132307 50 270 5.0 6.0 0.00 0.00 0.00 84 1020.1
20260507131257 49 256 1.0 2.0 0.00 0.00 0.00 86 1019.9
20260507130239 48 245 5.0 6.0 0.00 0.00 0.00 87 1019.9
20260507125257 47 206 2.0 2.0 0.00 0.00 0.00 88 1020.1
20260507124239 46 233 3.0 3.0 0.00 0.00 0.00 89 1020.2
20260507123241 45 233 3.0 5.0 0.00 0.00 0.00 89 1020.2
20260507122231 44 234 2.0 3.0 0.00 0.00 0.00 90 1020.2
20260507121332 44 231 3.0 5.0 0.00 0.00 0.00 91 1020.1
20260507120323 43 201 2.0 2.0 0.00 0.00 0.00 91 1020.2
20260507115322 43 0.0 0.0 0.00 0.00 0.00 91 1019.9
20260507114344 43 0.0 0.0 0.00 0.00 0.00 91 1020.1
20260507113404 43 0.0 0.0 0.00 0.00 0.00 91 1020.2
20260507112318 43 0.0 0.0 0.00 0.00 0.00 90 1020.2
20260507111316 43 0.0 0.0 0.00 0.00 0.00 90 1020.2
20260507110315 43 0.0 0.0 0.00 0.00 0.00 90 1020.2
20260507105309 43 0.0 0.0 0.00 0.00 0.00 90 1019.9
20260507104311 43 0.0 0.0 0.00 0.00 0.00 89 1019.7
20260507103309 44 0.0 0.0 0.00 0.00 0.00 89 1019.8
20260507102331 44 194 1.0 1.0 0.00 0.00 0.00 89 1019.8
20260507101313 44 0.0 0.0 0.00 0.00 0.00 88 1019.9
20260507100255 44 0.0 0.0 0.00 0.00 0.00 87 1019.9
20260507095252 45 0.0 0.0 0.00 0.00 0.00 87 1020.2
20260507094253 46 0.0 0.0 0.00 0.00 0.00 86 1020.2
20260507093152 46 195 0.0 1.0 0.00 0.00 0.00 86 1020.4
20260507092214 46 258 2.0 3.0 0.00 0.00 0.00 85 1020.3
20260507091244 47 271 1.0 1.0 0.00 0.00 0.00 85 1020.7
20260507090230 47 0.0 0.0 0.00 0.01 0.00 84 1020.6
20260507085227 48 0.0 0.0 0.00 0.01 0.00 84 1020.6
20260507084236 48 0.0 0.0 0.00 0.03 0.00 84 1020.6
20260507083218 47 0.0 0.0 0.00 0.03 0.00 85 1020.6
20260507082216 47 0.0 0.0 0.00 0.03 0.00 86 1020.8
20260507081215 47 0.0 0.0 0.00 0.03 0.00 86 1020.8
20260507080158 46 0.0 0.0 0.00 0.03 0.00 87 1020.9
20260507075152 46 0.0 0.0 0.00 0.03 0.00 88 1020.8
20260507074150 46 0.0 0.0 0.00 0.03 0.00 88 1020.8
20260507073149 45 0.0 0.0 0.00 0.03 0.00 87 1021.1
20260507072230 45 0.0 0.0 0.00 0.03 0.00 86 1020.9
20260507071152 46 0.0 0.0 0.00 0.03 0.00 85 1021.3
20260507070152 47 0.0 0.0 0.00 0.04 0.00 85 1021.0
20260507065151 47 0.0 0.0 0.00 0.05 0.00 85 1021.1
20260507064152 47 0.0 0.0 0.00 0.06 0.00 86 1021.4
20260507063150 46 0.0 0.0 0.00 0.06 0.00 86 1021.3
20260507062152 46 0.0 0.0 0.00 0.07 0.00 86 1021.4
20260507061138 47 0.0 0.0 0.00 0.08 0.00 86 1021.3
20260507060033 47 0.0 0.0 0.00 0.09 0.00 86 1021.2
20260507055151 47 0.0 0.0 0.00 0.10 0.00 87 1021.2
20260507054149 47 0.0 0.0 0.00 0.10 0.00 88 1021.2
20260507053122 47 0.0 0.0 0.00 0.11 0.00 89 1021.5
20260507052123 46 0.0 0.0 0.00 0.11 0.00 88 1021.1
20260507051110 46 0.0 0.0 0.00 0.11 0.00 88 1021.1
20260507050132 46 0.0 0.0 0.00 0.11 0.11 87 1021.5
20260507045143 46 0.0 0.0 0.00 0.11 0.11 87 1021.3
20260507044211 45 0.0 0.0 0.00 0.11 0.11 87 1021.3
20260507043110 46 0.0 0.0 0.00 0.11 0.11 87 1021.0
20260507042111 45 0.0 0.0 0.00 0.11 0.11 86 1021.1
20260507041104 45 0.0 0.0 0.00 0.11 0.11 85 1021.4
20260507035105 45 0.0 0.0 0.00 0.11 0.11 84 1021.4
20260507034103 45 0.0 0.0 0.00 0.11 0.11 83 1021.3
20260507033050 46 0.0 0.0 0.00 0.11 0.11 81 1021.4
20260507032051 47 0.0 0.0 0.00 0.11 0.11 80 1021.1
20260507031113 47 0.0 0.0 0.00 0.11 0.11 80 1021.1
20260507030042 48 0.0 0.0 0.00 0.11 0.11 78 1021.2
20260507025057 49 0.0 0.0 0.00 0.11 0.11 75 1021.2
20260507023931 50 0.0 0.0 0.00 0.11 0.11 73 1021.0
20260507023021 51 0.0 0.0 0.00 0.11 0.11 72 1020.9
20260507022020 52 0.0 0.0 0.00 0.11 0.11 71 1020.8
20260507021016 52 0.0 0.0 0.00 0.11 0.11 69 1020.7
20260507020038 52 0.0 0.0 0.00 0.12 0.11 69 1020.5
20260507015009 53 0.0 0.0 0.00 0.12 0.11 64 1020.5
20260507014011 54 0.0 0.0 0.00 0.12 0.11 63 1020.4
20260507013003 55 0.0 0.0 0.00 0.13 0.11 59 1020.6
20260507012004 55 0.0 0.0 0.00 0.13 0.11 57 1020.3
20260507010958 56 0.0 0.0 0.00 0.13 0.11 55 1020.3
20260507005945 56 0.0 0.0 0.00 0.13 0.11 55 1020.1
20260507004943 57 176 0.0 1.0 0.00 0.13 0.11 54 1020.2
20260507003946 57 0.0 0.0 0.00 0.13 0.11 54 1019.9
20260507002943 57 0.0 0.0 0.00 0.13 0.11 54 1019.8
20260507001945 57 0.0 0.0 0.00 0.13 0.11 53 1019.8
20260507000942 57 0.0 0.0 0.00 0.13 0.11 54 1019.9
20260506235959 58 0.0 0.0 0.00 0.13 0.11 54 1019.8
20260506234936 58 0.0 0.0 0.00 0.13 0.11 53 1019.8
20260506233938 58 0.0 0.0 0.00 0.13 0.11 52 1019.7
20260506232935 59 0.0 0.0 0.00 0.13 0.11 51 1019.8
20260506232047 60 180 1.0 1.0 0.00 0.13 0.11 51 1019.7
20260506231022 60 25 1.0 2.0 0.00 0.13 0.11 50 1019.7
20260506230044 60 0.0 0.0 0.00 0.13 0.11 51 1019.7
20260506225026 60 201 1.0 2.0 0.00 0.13 0.11 51 1019.8
20260506224021 59 0.0 0.0 0.00 0.13 0.11 54 1019.5
20260506223009 59 339 2.0 3.0 0.00 0.13 0.11 55 1019.6
20260506222011 59 147 1.0 1.0 0.00 0.13 0.11 54 1019.6
20260506221009 58 122 0.0 1.0 0.00 0.13 0.11 54 1019.5
20260506220004 58 189 1.0 2.0 0.00 0.13 0.11 54 1019.7
20260506214945 59 299 1.0 2.0 0.00 0.13 0.11 55 1019.7
20260506213958 60 0.0 0.0 0.00 0.13 0.11 53 1019.7
20260506212936 60 28 1.0 2.0 0.00 0.13 0.11 52 1019.8
20260506211831 60 204 1.0 1.0 0.00 0.13 0.11 51 1019.9
20260506210829 62 201 2.0 3.0 0.00 0.13 0.11 49 1020.1
20260506205932 60 154 0.0 1.0 0.00 0.13 0.11 53 1020.2
20260506204922 60 60 2.0 2.0 0.00 0.13 0.11 51 1020.3
20260506203923 61 95 0.0 1.0 0.00 0.13 0.11 50 1020.5
20260506202921 61 200 1.0 2.0 0.00 0.13 0.11 48 1020.6
20260506201915 61 0.0 0.0 0.00 0.13 0.11 48 1020.5
20260506200923 60 102 2.0 2.0 0.00 0.13 0.11 51 1021.0
20260506195904 60 148 4.0 5.0 0.00 0.13 0.11 51 1021.0
20260506194902 60 125 2.0 2.0 0.00 0.13 0.11 51 1021.3
20260506193900 62 114 2.0 3.0 0.00 0.13 0.11 52 1021.2
20260506192911 60 276 2.0 2.0 0.00 0.13 0.11 54 1021.4
20260506191849 59 91 4.0 5.0 0.00 0.13 0.11 53 1021.1
20260506190911 59 127 1.0 1.0 0.00 0.13 0.11 55 1021.2
20260506185853 58 110 2.0 2.0 0.00 0.13 0.11 56 1021.1
20260506184849 58 1 2.0 2.0 0.00 0.13 0.11 59 1021.3
20260506183851 57 175 3.0 3.0 0.00 0.13 0.11 58 1021.6
20260506182850 57 147 1.0 1.0 0.00 0.13 0.11 58 1022.0
20260506181851 57 74 3.0 6.0 0.00 0.13 0.11 59 1021.6
20260506180843 57 64 2.0 2.0 0.00 0.13 0.11 58 1021.7
20260506175836 55 155 1.0 2.0 0.00 0.13 0.11 60 1021.9
20260506174731 54 168 1.0 2.0 0.00 0.13 0.11 62 1022.0
20260506173750 54 53 1.0 1.0 0.00 0.13 0.11 67 1022.5
20260506172826 54 124 0.0 1.0 0.00 0.13 0.11 66 1022.2
20260506171816 53 123 1.0 2.0 0.00 0.13 0.11 68 1022.1
20260506170818 52 65 1.0 1.0 0.00 0.13 0.11 69 1022.2
20260506165818 52 194 3.0 5.0 0.00 0.13 0.11 72 1022.2
20260506164816 52 204 1.0 1.0 0.00 0.13 0.11 75 1022.1
20260506163810 51 0.0 0.0 0.00 0.13 0.11 77 1022.5
20260506162802 51 307 4.0 6.0 0.00 0.13 0.11 79 1022.2
20260506161803 51 0.0 0.0 0.00 0.13 0.11 80 1022.6
20260506160822 49 0.0 0.0 0.00 0.13 0.11 83 1022.7
20260506155751 49 0.0 0.0 0.00 0.13 0.11 85 1022.7
20260506154749 49 0.0 0.0 0.00 0.13 0.11 86 1022.8